Location: Atlantic Beach
(40.5890°N, 73.7290°W)
Time: 20:15:41
(UTC+00:00)

Hubble Space Telescope - Visible Passes

Search period start: 22 January 2021 00:00
Search period end: 01 February 2021 00:00
Orbit: 536 x 539 km, 28.5° (Epoch: 22 January)

Date Brightness Start Highest point End Pass type
(mag) Time Alt. Az. Time Alt. Az. Time Alt. Az.
22 Jan 3.2 00:17:58 10° SW 00:19:55 14° S 00:19:55 14° S visible
23 Jan 3.1 00:07:10 10° SW 00:09:20 14° S 00:09:49 14° S visible
23 Jan 3.3 23:56:26 10° SW 23:58:22 13° S 23:59:46 11° SSE visible
24 Jan 3.4 23:45:52 10° SSW 23:47:24 12° SSW 23:48:56 10° S visible
25 Jan 3.6 23:35:40 10° SSW 23:36:26 10° SSW 23:37:11 10° S visible
